Погода в Изи-Шурге

Россия / Республика Марий Эл     56°28′11″N   48°42′27″E
темп.,
°C
ветер,
м/с
пор.,
м/с
влажн.,
%
обл.,
%
осадки,
мм/ч
давл.,
гПа
погр.,
м
13 мая, чт
чт1300:00+14юв007297 0.0 102510
03:00+14в226651 0.0 102511
06:00+17вюв266695 0.0 1025147
09:00+22юв47425 0.0 1024790
12:00+25юв5735100 0.0 10241537
15:00+25юв5740100 0.0 10221357
18:00+21юв3958100 0.1 1022388
21:00+19юв4136381 0.1 1021372
14 мая, пт
пт1400:00+19ююв5146290 0.1 1020462
03:00+14ююв388960 1.1 1021167
06:00+16ююв378162 0.2 1020248
09:00+21ююз356067 0.2 1021550
12:00+24ююз4652100 0.0 10211182
15:00+24ююз4552100 0.0 10201260
18:00+23ююз24644 0.0 1019128
21:00+18ююв228352 0.0 101913
15 мая, сб
сб1500:00+16ю227799 0.0 101921
03:00+16ююв2377100 0.0 101951
06:00+18ююв3970100 0.0 1019264
09:00+23ю5847100 0.0 1019493
12:00+27ю6103695 0.0 10181025
15:00+27ю61037100 0.0 10181302
18:00+23ю51250100 0.0 1017552
21:00+19ю4145496 0.0 1017341
16 мая, вс
вс1600:00+16ююз3146113 0.0 1017295
03:00+15ю31062100 0.0 1017184
06:00+18ю3116081 0.0 1017341
09:00+23ююз594667 0.0 1017652
12:00+26юз61040100 0.0 10161316
15:00+27юз51040100 0.0 10161652
18:00+23юз2659100 0.0 1015190
21:00+18юз22785 0.0 101611
17 мая, пн
пн1700:00+16зюз129120 0.1 101614
03:00+14юз009442 0.2 101710
06:00+17зсз12825 0.0 1018183
09:00+23з125212 0.0 1018801
12:00+26зюз244354 0.0 10181686
15:00+27з253898 0.0 10172263
18:00+23ссв236022 0.0 101891
21:00+18всв227358 0.0 101815